HAWK-A (43765 NORAD) Tracking and Keplerian Element Data

This shows tracking and keplerian element data for the satellite.

Feedback or suggestion? Click here.




ElementValue
Catalog43765
NameHAWK-A
Epoch Orbit733
Epoch Day21.84825719
Epoch Year2019
RAAN95.5764
Inclination97.7599
Eccentricity0.0016393
Argument of Perigee108.0883
Mean Anonmoly252.2126
Mean Motion14.95921682
Decay Rate-3.39E-06
L11 43765U 18099H 19021.84825719 -.00000339 00000-0 -25041-4 0 9992
L22 43765 97.7599 95.5764 0016393 108.0883 252.2126 14.95921682 7339

Live tracking and technical data element details for HAWK-A (NORAD 43765). HAWK-A can be tracked NOW for your location showing map with azimuth and elevation plus other details from your city location.

Track the satellite on the map from your city or location and see movement details for azimuth, elevation, latitude, longitude, range, height, and movement on the map or in text.







IsCatalogInMostPopularTable: catalog: 43765, numindb: 24
Update: records affected: 1



GetName: 43765 HAWK-A

Hit Count: updated at: Wed, 23 Jan 2019 03:09:45 GMT